Location: ???
(60.6398°N, 46.9067°E)
Time: 19:19:43
(UTC+00:00)

SPOT 3 Rocket - Pass Details

Date: 08 December 2019
Orbit: 778 x 795 km, 98.8° (Epoch: 17 January)

Event Time Altitude Azimuth Distance (km) Brightness Sun altitude
Exits shadow 15:40:58 35° 5° (N) 1,259 4.5 -26.6°
Drops below altitude 10° 15:44:09 10° 346° (NNW) 2,363 6.2 -27.0°
Sets 15:46:30 0° 342° (NNW) 3,293 7.0 -27.3°
